• In Austria
  • List of Countries
  • For 7 days
  • Water Temperature
  • Satellite Maps
  • Weather Map
  • News
  • Weather Widgets
  • user-avatar
    Login

    Hourly Weather Schwerin

    Today, 24 May, Thursday

    Time Temperature Precipitation Wind Pressure Humidity
    00:00 +11°C° 0 mm 4 mps 765 mmHg 78%
    01:00 +11°C° 0 mm 4 mps 765 mmHg 77%
    02:00 +11°C° 0 mm 4 mps 765 mmHg 80%
    03:00 +10°C° 0 mm 4 mps 765 mmHg 83%
    04:00 +10°C° 0 mm 3 mps 765 mmHg 86%
    05:00 +12°C° 0 mm 4 mps 765 mmHg 82%
    06:00 +13°C° 0 mm 4 mps 765 mmHg 79%
    07:00 +15°C° 0 mm 5 mps 765 mmHg 75%
    08:00 +16°C° 0 mm 5 mps 765 mmHg 70%
    09:00 +17°C° 0 mm 5 mps 765 mmHg 65%
    10:00 +20°C° 0 mm 6 mps 765 mmHg 59%
    11:00 +21°C° 0 mm 6 mps 765 mmHg 58%
    12:00 +21°C° 0 mm 6 mps 765 mmHg 57%
    13:00 +22°C° 0 mm 6 mps 764 mmHg 56%
    14:00 +22°C° 0 mm 6 mps 764 mmHg 58%
    15:00 +22°C° 0 mm 6 mps 764 mmHg 60%
    16:00 +22°C° 0 mm 6 mps 763 mmHg 61%
    17:00 +21°C° 0 mm 6 mps 763 mmHg 64%
    18:00 +19°C° 0 mm 6 mps 763 mmHg 68%
    19:00 +17°C° 0 mm 6 mps 763 mmHg 71%
    20:00 +16°C° 0 mm 6 mps 763 mmHg 71%
    21:00 +15°C° 0 mm 5 mps 764 mmHg 71%
    22:00 +14°C° 0 mm 5 mps 764 mmHg 71%
    23:00 +14°C° 0 mm 5 mps 764 mmHg 73%

    Tomorrow, 25 May, Friday

    Time Temperature Precipitation Wind Pressure Humidity
    00:00 +13°C° 0 mm 4 mps 764 mmHg 75%
    01:00 +13°C° 0 mm 4 mps 764 mmHg 76%
    02:00 +13°C° 0 mm 4 mps 764 mmHg 76%
    03:00 +12°C° 0 mm 4 mps 764 mmHg 77%
    04:00 +12°C° 0 mm 4 mps 764 mmHg 77%
    05:00 +13°C° 0 mm 5 mps 764 mmHg 75%
    06:00 +14°C° 0 mm 5 mps 764 mmHg 73%
    07:00 +14°C° 0 mm 5 mps 764 mmHg 71%
    08:00 +16°C° 0 mm 5 mps 764 mmHg 69%
    09:00 +19°C° 0 mm 5 mps 764 mmHg 66%
    10:00 +20°C° 0 mm 5 mps 764 mmHg 63%
    11:00 +21°C° 0 mm 5 mps 763 mmHg 61%
    12:00 +22°C° 0 mm 5 mps 763 mmHg 60%
    13:00 +23°C° 0 mm 5 mps 763 mmHg 58%
    14:00 +23°C° 0 mm 5 mps 763 mmHg 59%
    15:00 +23°C° 0 mm 5 mps 763 mmHg 60%
    16:00 +22°C° 0 mm 5 mps 763 mmHg 62%
    17:00 +21°C° 0 mm 5 mps 763 mmHg 66%
    18:00 +20°C° 0 mm 5 mps 763 mmHg 71%
    19:00 +19°C° 0 mm 5 mps 763 mmHg 76%
    20:00 +17°C° 0 mm 4 mps 763 mmHg 77%
    21:00 +15°C° 0 mm 4 mps 763 mmHg 79%
    22:00 +14°C° 0 mm 4 mps 763 mmHg 81%
    23:00 +13°C° 0 mm 4 mps 763 mmHg 81%

    Day after tomorrow, 26 May, Saturday

    Time Temperature Precipitation Wind Pressure Humidity
    00:00 +13°C° 0 mm 3 mps 763 mmHg 81%
    01:00 +12°C° 0 mm 3 mps 763 mmHg 82%
    02:00 +12°C° 0 mm 3 mps 763 mmHg 85%
    03:00 +12°C° 0 mm 3 mps 763 mmHg 88%
    04:00 +11°C° 0 mm 3 mps 763 mmHg 91%
    05:00 +13°C° 0 mm 3 mps 763 mmHg 88%
    06:00 +14°C° 0 mm 3 mps 763 mmHg 85%
    07:00 +17°C° 0 mm 3 mps 763 mmHg 82%
    08:00 +18°C° 0 mm 3 mps 763 mmHg 77%
    09:00 +20°C° 0 mm 3 mps 764 mmHg 73%
    10:00 +22°C° 0 mm 3 mps 764 mmHg 68%
    11:00 +22°C° 0 mm 3 mps 764 mmHg 66%
    12:00 +24°C° 0 mm 3 mps 764 mmHg 64%
    13:00 +25°C° 0 mm 3 mps 764 mmHg 61%
    14:00 +23°C° 0.1 mm 4 mps 763 mmHg 64%
    15:00 +23°C° 0.1 mm 4 mps 763 mmHg 66%
    16:00 +23°C° 0.1 mm 4 mps 763 mmHg 69%
    17:00 +22°C° 0 mm 4 mps 763 mmHg 73%
    18:00 +21°C° 0 mm 4 mps 764 mmHg 78%
    19:00 +20°C° 0 mm 3 mps 764 mmHg 82%
    20:00 +18°C° 0 mm 3 mps 764 mmHg 86%
    21:00 +17°C° 0 mm 3 mps 764 mmHg 90%
    22:00 +14°C° 0 mm 3 mps 765 mmHg 95%
    23:00 +13°C° 0 mm 3 mps 765 mmHg 95%

    27 May, Sunday

    Time Temperature Precipitation Wind Pressure Humidity
    00:00 +13°C° 0 mm 3 mps 764 mmHg 96%
    01:00 +13°C° 0 mm 2 mps 764 mmHg 96%
    02:00 +13°C° 0 mm 2 mps 764 mmHg 97%
    03:00 +12°C° 0 mm 3 mps 764 mmHg 97%
    04:00 +12°C° 0 mm 3 mps 764 mmHg 97%
    05:00 +13°C° 0 mm 3 mps 764 mmHg 96%
    06:00 +14°C° 0 mm 3 mps 764 mmHg 94%
    07:00 +15°C° 0 mm 4 mps 764 mmHg 93%
    08:00 +15°C° 0 mm 4 mps 764 mmHg 91%
    09:00 +17°C° 0 mm 4 mps 764 mmHg 89%
    10:00 +17°C° 0 mm 4 mps 764 mmHg 88%
    11:00 +18°C° 0 mm 3 mps 763 mmHg 86%
    12:00 +18°C° 0 mm 3 mps 763 mmHg 85%
    13:00 +18°C° 0 mm 3 mps 763 mmHg 83%
    14:00 +19°C° 0 mm 4 mps 763 mmHg 82%
    15:00 +20°C° 0 mm 4 mps 762 mmHg 80%
    16:00 +20°C° 0 mm 4 mps 762 mmHg 78%
    17:00 +20°C° 0.1 mm 4 mps 762 mmHg 81%
    18:00 +20°C° 0.1 mm 4 mps 762 mmHg 84%
    19:00 +19°C° 0.1 mm 3 mps 762 mmHg 86%
    20:00 +18°C° 0 mm 3 mps 762 mmHg 90%
    21:00 +17°C° 0 mm 3 mps 762 mmHg 93%
    22:00 +14°C° 0 mm 3 mps 762 mmHg 97%
    23:00 +14°C° 0 mm 3 mps 762 mmHg 97%

    28 May, Monday

    Time Temperature Precipitation Wind Pressure Humidity
    00:00 +13°C° 0 mm 3 mps 762 mmHg 97%
    01:00 +14°C° 0 mm 2 mps 762 mmHg 97%
    02:00 +14°C° 0 mm 2 mps 762 mmHg 97%
    03:00 +14°C° 0 mm 2 mps 762 mmHg 96%
    04:00 +14°C° 0 mm 2 mps 762 mmHg 96%
    05:00 +14°C° 0 mm 3 mps 762 mmHg 93%
    06:00 +17°C° 0 mm 3 mps 762 mmHg 91%
    07:00 +18°C° 0 mm 3 mps 762 mmHg 88%
    08:00 +20°C° 0.2 mm 4 mps 762 mmHg 83%
    09:00 +22°C° 0.2 mm 4 mps 762 mmHg 77%
    10:00 +23°C° 0.2 mm 4 mps 762 mmHg 72%
    11:00 +25°C° 0.3 mm 4 mps 761 mmHg 69%
    12:00 +26°C° 0.3 mm 4 mps 761 mmHg 66%
    13:00 +26°C° 0.3 mm 4 mps 761 mmHg 64%
    14:00 +26°C° 0.3 mm 4 mps 761 mmHg 65%
    15:00 +26°C° 0.3 mm 4 mps 761 mmHg 67%
    16:00 +26°C° 0.3 mm 5 mps 760 mmHg 68%
    17:00 +25°C° 0.1 mm 5 mps 760 mmHg 72%
    18:00 +23°C° 0.1 mm 5 mps 760 mmHg 75%
    19:00 +22°C° 0.1 mm 4 mps 760 mmHg 79%
    20:00 +22°C° 0 mm 4 mps 760 mmHg 80%
    21:00 +21°C° 0 mm 4 mps 760 mmHg 81%
    22:00 +20°C° 0 mm 5 mps 761 mmHg 82%
    23:00 +19°C° 0 mm 4 mps 760 mmHg 83%

    29 May, Tuesday

    Time Temperature Precipitation Wind Pressure Humidity
    00:00 +18°C° 0 mm 4 mps 760 mmHg 84%
    01:00 +18°C° 0 mm 4 mps 760 mmHg 85%
    02:00 +17°C° 0 mm 4 mps 760 mmHg 87%
    03:00 +17°C° 0 mm 4 mps 760 mmHg 88%
    04:00 +15°C° 0 mm 4 mps 760 mmHg 90%
    05:00 +17°C° 0 mm 4 mps 760 mmHg 87%
    06:00 +18°C° 0 mm 4 mps 760 mmHg 84%
    07:00 +19°C° 0 mm 4 mps 760 mmHg 81%
    08:00 +21°C° 0 mm 4 mps 760 mmHg 78%
    09:00 +22°C° 0 mm 4 mps 760 mmHg 75%
    10:00 +25°C° 0 mm 4 mps 759 mmHg 72%
    11:00 +26°C° 0 mm 4 mps 759 mmHg 68%
    12:00 +27°C° 0 mm 5 mps 759 mmHg 65%
    13:00 +29°C° 0 mm 5 mps 758 mmHg 61%
    14:00 +29°C° 0 mm 5 mps 758 mmHg 61%
    15:00 +29°C° 0 mm 5 mps 758 mmHg 61%
    16:00 +29°C° 0 mm 5 mps 758 mmHg 60%
    17:00 +28°C° 0.1 mm 4 mps 757 mmHg 65%
    18:00 +27°C° 0.1 mm 4 mps 757 mmHg 71%
    19:00 +25°C° 0.1 mm 4 mps 757 mmHg 76%
    20:00 +23°C° 0 mm 4 mps 757 mmHg 78%
    21:00 +22°C° 0 mm 4 mps 757 mmHg 80%
    22:00 +21°C° 0 mm 4 mps 757 mmHg 83%
    23:00 +20°C° 0.5 mm 4 mps 757 mmHg 86%
    Show more